Flag for United Kingdom

Past Weather in Bodmin, England, United Kingdom — Yesterday and Last 2 Weeks

Now
47 °F

Cool.


Feels Like: 45 °F
Forecast: 63 / 58 °F
Wind: 5 mph from Northwest

Location: Cardinham

Current Time: Jul 7, 2020 at 4:53:21 am

Latest Report: Jul 7, 2020 at 4:00 am


Visibility: 1 mi

Pressure: 30.24 "Hg

Humidity: 99%

Dew Point: 47 °F

Location of BodminLocation

Past Weather in Bodmin — Graph

°F

Bodmin Temperature Yesterday

Maximum temperature yesterday: 62 °F (at 3:00 pm)
Minimum temperature yesterday: 49 °F (at 11:00 pm)
Average temperature yesterday: 56 °F

High & Low Weather Summary for the Past Weeks

 TemperatureHumidityPressure
High81 °F (Jun 25, 12:00 pm)100% (Jun 22, 4:00 am)30.30 "Hg (Jun 22, 4:00 am)
Low47 °F (Jul 7, 2:00 am)46% (Jun 24, 3:00 pm)29.58 "Hg (Jun 27, 6:00 am)
Average58 °F86%29.94 "Hg
* Reported Jun 22 3:00 am — Jul 7 3:00 am, Bodmin. Weather by CustomWeather, © 2020

Note: Actual official high and low records may vary slightly from our data, if they occured in-between our weather recording intervals... More about our weather records

Bodmin Weather History for the Previous 24 Hours

Scroll right to see more
 ConditionsComfort  
Time TempWeatherWind HumidityBarometerVisibility
3:00 am
Tue, Jul 7
48 °FCool.5 mph99%30.26 "Hg2 mi
2:00 am47 °FFog.3 mph99%30.28 "Hg3 mi
12:00 am48 °FFog.3 mph97%30.29 "Hg5 mi
11:00 pm
Mon, Jul 6
49 °FCool.5 mph94%30.30 "Hg6 mi
10:00 pm52 °FCool.7 mph94%30.30 "Hg9 mi
9:00 pm54 °FCool.9 mph86%30.29 "Hg12 mi
8:00 pm55 °FCool.9 mph83%30.30 "Hg14 mi
7:00 pm57 °FCool.12 mph74%30.29 "Hg17 mi
6:00 pm58 °FCool.12 mph73%30.28 "Hg15 mi
5:00 pm58 °FCool.13 mph75%30.29 "Hg16 mi
4:00 pm61 °FCool.13 mph68%30.27 "Hg15 mi
3:00 pm62 °FMild.13 mph74%30.27 "Hg10 mi
2:00 pm60 °FCool.15 mph73%30.27 "Hg12 mi
1:00 pm62 °FCool.15 mph72%30.25 "Hg15 mi
12:00 pm60 °FCool.18 mph77%30.24 "Hg7 mi
11:00 am56 °FCool.17 mph76%30.23 "Hg15 mi
10:00 am57 °FCool.20 mph78%30.21 "Hg11 mi
9:00 am56 °FCool.18 mph83%30.20 "Hg10 mi
8:00 am54 °FCool.16 mph85%30.18 "Hg12 mi
7:00 am53 °FCool.15 mph85%30.16 "Hg10 mi
6:00 am52 °FCool.14 mph90%30.14 "Hg7 mi
5:00 am53 °FCool.18 mph88%30.13 "Hg8 mi
4:00 am53 °FSmoke.16 mph92%30.12 "Hg6 mi
Weather by CustomWeather, © 2020

See weather overview